GW2857 Weather Reports


Display with metric or nautical units.
time (UTC)temp
F
wind
direction
speed
MPH
gust
MPH
rain 1hr
in
rain 24hr
in
rain mn
in
humidity
%
barometer
mb
20260510111015 53 0.0 2.0 0.00 0.03 0.01 88 1009.3
20260510110515 53 0.0 3.0 0.00 0.03 0.01 89 1009.2
20260510110035 53 0.0 0.0 0.00 0.03 0.01 89 1009.2
20260510105515 52 0.0 2.0 0.00 0.03 0.01 89 1009.0
20260510105055 52 0.0 1.0 0.00 0.03 0.01 89 1008.6
20260510104515 52 158 2.0 4.0 0.00 0.03 0.01 89 1008.7
20260510104015 52 0.0 1.0 0.00 0.03 0.01 89 1008.8
20260510103516 52 0.0 1.0 0.00 0.03 0.01 89 1008.8
20260510103015 52 180 1.0 5.0 0.00 0.03 0.01 89 1008.8
20260510102515 52 180 2.0 4.0 0.00 0.03 0.01 89 1008.7
20260510102015 52 158 3.0 4.0 0.00 0.03 0.01 89 1008.6
20260510101515 52 180 1.0 4.0 0.00 0.03 0.01 89 1008.3
20260510101015 51 180 1.0 4.0 0.00 0.03 0.01 89 1008.2
20260510100515 51 135 2.0 4.0 0.00 0.03 0.01 89 1008.0
20260510100016 51 158 2.0 4.0 0.00 0.03 0.01 89 1007.9
20260510095515 51 180 3.0 5.0 0.00 0.03 0.01 89 1008.0
20260510095015 51 180 3.0 5.0 0.00 0.03 0.01 89 1008.1
20260510094515 51 180 3.0 5.0 0.00 0.03 0.01 89 1008.1
20260510094015 51 180 1.0 2.0 0.00 0.03 0.01 88 1008.2
20260510093516 52 203 2.0 4.0 0.00 0.03 0.01 88 1008.2
20260510093015 52 180 2.0 4.0 0.00 0.03 0.01 88 1008.0
20260510092515 52 203 2.0 3.0 0.00 0.03 0.01 88 1007.9
20260510092015 52 158 1.0 3.0 0.00 0.03 0.01 89 1007.7
20260510091515 52 203 1.0 2.0 0.00 0.03 0.01 88 1007.7
20260510091015 52 158 1.0 2.0 0.00 0.03 0.01 89 1007.6
20260510090535 52 180 2.0 4.0 0.00 0.03 0.01 89 1007.6
20260510090015 52 158 1.0 2.0 0.00 0.03 0.01 89 1007.5
20260510085536 51 180 1.0 3.0 0.00 0.03 0.01 89 1007.5
20260510085035 51 203 1.0 3.0 0.00 0.03 0.01 90 1007.5
20260510084515 51 0.0 0.0 0.00 0.03 0.01 90 1007.5
20260510084015 52 0.0 0.0 0.01 0.03 0.01 89 1007.4
20260510083535 52 0.0 1.0 0.01 0.03 0.01 89 1007.7
20260510083015 52 0.0 0.0 0.01 0.03 0.01 89 1007.6
20260510082516 52 135 1.0 2.0 0.01 0.03 0.01 89 1007.4
20260510082015 52 0.0 1.0 0.01 0.03 0.01 89 1007.3
20260510081515 52 180 1.0 4.0 0.01 0.03 0.01 89 1007.3
20260510081015 52 135 1.0 3.0 0.01 0.03 0.01 89 1007.4
20260510080515 52 135 1.0 4.0 0.01 0.03 0.01 89 1007.6
20260510080015 52 113 1.0 4.0 0.01 0.03 0.01 89 1007.3
20260510075515 52 0.0 3.0 0.01 0.03 0.01 89 1007.7
20260510075016 52 158 2.0 4.0 0.01 0.03 0.01 88 1007.8
20260510074515 52 135 2.0 4.0 0.01 0.03 0.01 88 1007.8
20260510074015 52 135 1.0 4.0 0.00 0.02 0.00 87 1007.9
20260510073515 52 180 3.0 5.0 0.00 0.02 0.00 87 1007.9
20260510073035 52 158 3.0 5.0 0.00 0.02 0.00 87 1007.9
20260510072516 52 203 3.0 5.0 0.00 0.02 0.00 86 1008.1
20260510072015 52 180 1.0 3.0 0.00 0.02 0.00 86 1008.1
20260510071515 52 180 2.0 3.0 0.00 0.02 0.00 86 1008.0
20260510071015 52 158 1.0 3.0 0.00 0.02 0.00 86 1008.0
20260510070515 52 180 2.0 4.0 0.00 0.02 0.00 85 1008.0
20260510070015 52 180 1.0 2.0 0.00 0.02 0.00 85 1007.9
20260510065515 52 158 1.0 4.0 0.00 0.02 0.00 85 1008.0
20260510065015 52 180 1.0 3.0 0.00 0.02 0.00 84 1008.0
20260510064515 53 180 2.0 4.0 0.00 0.02 0.00 84 1008.1
20260510064035 53 180 2.0 4.0 0.00 0.02 0.00 83 1008.2
20260510063515 53 180 3.0 4.0 0.00 0.02 0.00 83 1008.1
20260510063035 53 203 2.0 4.0 0.00 0.02 0.00 83 1008.1
20260510062515 53 180 1.0 4.0 0.00 0.02 0.00 83 1008.1
20260510062015 53 0.0 1.0 0.00 0.02 0.00 83 1008.0
20260510061517 52 180 1.0 4.0 0.00 0.02 0.00 83 1007.8
20260510061037 52 180 2.0 3.0 0.00 0.02 0.00 83 1007.8
20260510060517 52 0.0 2.0 0.00 0.02 0.00 83 1007.9
20260510060017 52 180 1.0 4.0 0.00 0.02 0.00 83 1007.8
20260510055517 52 135 2.0 4.0 0.00 0.02 0.00 83 1007.8
20260510055016 52 180 2.0 3.0 0.00 0.02 0.00 83 1007.8
20260510054517 52 180 2.0 5.0 0.00 0.02 0.00 84 1007.6
20260510054017 52 135 2.0 4.0 0.00 0.02 0.00 83 1007.7
20260510053517 52 180 2.0 4.0 0.00 0.02 0.00 83 1007.8
20260510053017 52 158 2.0 4.0 0.00 0.02 0.00 83 1007.9
20260510052537 52 180 1.0 3.0 0.00 0.02 0.00 83 1008.0
20260510052016 52 180 3.0 6.0 0.00 0.02 0.00 83 1008.0
20260510051537 52 158 2.0 5.0 0.00 0.02 0.00 83 1008.0
20260510051017 52 180 3.0 5.0 0.00 0.02 0.00 83 1008.0
20260510050517 52 180 2.0 4.0 0.00 0.02 0.00 84 1008.1
20260510050017 52 203 1.0 3.0 0.00 0.02 0.00 84 1008.2
20260510045516 52 203 1.0 2.0 0.00 0.02 0.00 84 1008.2
20260510045036 52 135 1.0 3.0 0.00 0.02 0.00 84 1008.1
20260510044517 52 180 3.0 4.0 0.00 0.02 0.00 83 1008.0
20260510044037 52 158 2.0 5.0 0.00 0.02 0.00 84 1007.9
20260510043517 52 158 3.0 5.0 0.00 0.02 0.00 84 1007.9
20260510043017 52 203 2.0 4.0 0.00 0.02 0.00 84 1007.8
20260510042517 52 180 2.0 5.0 0.00 0.02 0.00 83 1007.8
20260510042015 52 158 2.0 4.0 0.00 0.02 0.00 83 1007.8
20260510041537 52 180 2.0 3.0 0.00 0.02 0.00 83 1007.8
20260510041037 52 180 1.0 5.0 0.00 0.02 0.00 83 1007.8
20260510040517 52 158 2.0 5.0 0.00 0.02 0.00 83 1007.6
20260510040016 52 203 2.0 5.0 0.00 0.02 0.02 83 1007.5
20260510035515 52 180 3.0 5.0 0.00 0.02 0.02 83 1007.4
20260510035015 52 203 3.0 7.0 0.00 0.02 0.02 82 1007.5
20260510034515 52 180 2.0 5.0 0.00 0.02 0.02 82 1007.6
20260510034015 52 180 1.0 3.0 0.00 0.02 0.02 82 1007.7
20260510033516 52 158 2.0 3.0 0.00 0.02 0.02 82 1007.8
20260510033015 52 180 3.0 5.0 0.00 0.02 0.02 82 1007.8
20260510032515 52 158 2.0 5.0 0.00 0.02 0.02 82 1007.9
20260510032015 52 158 3.0 5.0 0.00 0.02 0.02 81 1008.0
20260510031515 52 180 4.0 12.0 0.00 0.02 0.02 81 1008.0
20260510031015 52 180 3.0 7.0 0.00 0.02 0.02 81 1007.9
20260510030515 52 180 3.0 5.0 0.00 0.02 0.02 81 1007.8
20260510030016 52 203 2.0 4.0 0.00 0.02 0.02 81 1007.9
20260510025515 52 203 2.0 4.0 0.00 0.02 0.02 81 1007.9
20260510025015 52 158 1.0 4.0 0.00 0.02 0.02 81 1007.9
20260510024515 52 180 2.0 4.0 0.00 0.02 0.02 81 1007.8
20260510024016 52 180 2.0 3.0 0.00 0.02 0.02 80 1007.8
20260510023515 52 180 2.0 5.0 0.00 0.02 0.02 80 1007.8
20260510023015 52 135 2.0 4.0 0.00 0.02 0.02 80 1007.8
20260510022515 52 180 3.0 6.0 0.00 0.02 0.02 80 1007.8
20260510022015 52 135 3.0 6.0 0.00 0.02 0.02 80 1007.9
20260510021515 52 180 2.0 4.0 0.00 0.02 0.02 80 1007.9
20260510021015 52 180 1.0 4.0 0.00 0.02 0.02 81 1008.0
20260510020515 52 203 3.0 11.0 0.00 0.02 0.02 81 1007.9
20260510020015 52 135 2.0 4.0 0.00 0.02 0.02 81 1008.0
20260510015516 52 180 2.0 4.0 0.00 0.02 0.02 81 1008.0
20260510015035 52 203 1.0 5.0 0.00 0.02 0.02 81 1008.1
20260510014515 52 180 2.0 4.0 0.00 0.02 0.02 82 1008.2
20260510014015 52 0.0 2.0 0.00 0.02 0.02 82 1008.1
20260510013515 52 180 1.0 3.0 0.00 0.02 0.02 83 1008.0
20260510013016 52 0.0 3.0 0.00 0.02 0.02 83 1008.0
20260510012515 52 0.0 3.0 0.00 0.02 0.02 83 1008.1
20260510012035 52 135 2.0 4.0 0.00 0.02 0.02 83 1008.3
20260510011537 52 135 1.0 4.0 0.00 0.02 0.02 83 1008.2
20260510011017 52 180 2.0 5.0 0.00 0.02 0.02 83 1008.1
20260510010517 52 158 3.0 4.0 0.00 0.02 0.02 83 1008.2
20260510010017 52 203 1.0 4.0 0.00 0.02 0.02 83 1008.2
20260510005516 52 203 1.0 4.0 0.00 0.02 0.02 82 1008.2
20260510005056 52 0.0 1.0 0.00 0.02 0.02 82 1008.2
20260510004517 52 180 2.0 6.0 0.00 0.02 0.02 83 1008.4
20260510004017 52 180 2.0 4.0 0.00 0.02 0.02 83 1008.2
20260510003516 52 158 2.0 4.0 0.00 0.02 0.02 82 1008.1
20260510003017 52 203 2.0 4.0 0.00 0.02 0.02 82 1008.1
20260510002517 52 158 3.0 5.0 0.00 0.02 0.02 82 1008.1
20260510002017 52 180 2.0 5.0 0.00 0.02 0.02 83 1008.1
20260510001517 52 180 2.0 4.0 0.00 0.02 0.02 83 1008.0
20260510001017 52 0.0 1.0 0.00 0.02 0.02 83 1008.0
20260510000517 52 158 1.0 3.0 0.00 0.02 0.02 83 1007.9
20260510000017 52 0.0 2.0 0.00 0.02 0.02 84 1007.8
20260509235517 52 0.0 0.0 0.00 0.02 0.02 84 1007.9
20260509235017 52 203 1.0 4.0 0.00 0.02 0.02 84 1007.8
20260509234518 52 0.0 3.0 0.00 0.02 0.02 83 1007.8
20260509234017 52 158 2.0 4.0 0.00 0.02 0.02 84 1007.8
20260509233517 52 0.0 2.0 0.00 0.02 0.02 84 1007.9
20260509233016 51 0.0 2.0 0.00 0.02 0.02 85 1007.7
20260509232517 51 0.0 3.0 0.00 0.02 0.02 85 1007.7
20260509232017 51 203 1.0 3.0 0.00 0.02 0.02 85 1007.6
20260509231517 51 203 2.0 4.0 0.00 0.02 0.02 86 1007.5
20260509231037 51 158 2.0 4.0 0.00 0.02 0.02 86 1007.5
20260509230517 51 180 2.0 4.0 0.00 0.02 0.02 86 1007.5
20260509230037 51 0.0 1.0 0.00 0.02 0.02 86 1007.5
20260509225516 51 158 1.0 4.0 0.00 0.02 0.02 86 1007.6
20260509225017 51 0.0 0.0 0.00 0.02 0.02 87 1007.7
20260509224517 51 0.0 1.0 0.00 0.02 0.02 87 1007.7
20260509224017 50 0.0 0.0 0.00 0.02 0.02 87 1007.7
20260509223537 50 0.0 0.0 0.00 0.02 0.02 87 1007.7
20260509223017 50 0.0 1.0 0.00 0.02 0.02 87 1007.7
20260509222516 50 203 1.0 3.0 0.00 0.02 0.02 88 1007.7
20260509222017 50 158 1.0 5.0 0.00 0.02 0.02 88 1007.8
20260509221537 50 180 1.0 5.0 0.00 0.02 0.02 88 1007.8
20260509221016 50 158 2.0 4.0 0.00 0.02 0.02 89 1007.9
20260509220517 50 158 2.0 5.0 0.00 0.02 0.02 89 1007.9
20260509220016 50 203 2.0 4.0 0.00 0.02 0.02 90 1007.9
20260509215516 49 135 2.0 4.0 0.00 0.02 0.02 90 1008.0
20260509215016 49 0.0 2.0 0.00 0.02 0.02 91 1008.1
20260509214537 49 180 2.0 5.0 0.00 0.02 0.02 91 1008.2
20260509214016 49 0.0 2.0 0.00 0.02 0.02 91 1008.2
20260509213537 49 0.0 1.0 0.00 0.02 0.02 91 1008.2
20260509213017 49 0.0 1.0 0.00 0.02 0.02 91 1008.3
20260509212557 49 0.0 1.0 0.00 0.02 0.02 91 1008.4
20260509212016 49 0.0 2.0 0.00 0.02 0.02 90 1008.5
20260509211516 49 0.0 1.0 0.00 0.02 0.02 89 1008.6
20260509211017 50 158 1.0 5.0 0.00 0.02 0.02 88 1008.6
20260509210517 50 0.0 1.0 0.00 0.02 0.02 88 1008.6
20260509210016 50 158 1.0 4.0 0.00 0.02 0.02 87 1008.6
20260509205536 50 180 1.0 2.0 0.00 0.02 0.02 87 1008.6
20260509205016 50 180 1.0 4.0 0.00 0.02 0.02 86 1008.6
20260509204516 50 203 2.0 4.0 0.00 0.02 0.02 86 1008.7
20260509204016 50 113 1.0 3.0 0.00 0.02 0.02 85 1008.7
20260509203516 51 180 1.0 3.0 0.00 0.02 0.02 84 1008.7
20260509203017 51 0.0 2.0 0.00 0.02 0.02 84 1008.7
20260509202516 51 203 1.0 4.0 0.00 0.02 0.02 84 1008.8
20260509202016 51 180 1.0 3.0 0.00 0.02 0.02 85 1008.8
20260509201516 51 203 1.0 3.0 0.00 0.02 0.02 87 1008.8
20260509201016 50 0.0 2.0 0.00 0.02 0.02 88 1008.8
20260509200536 50 0.0 1.0 0.00 0.02 0.02 89 1008.8
20260509200016 50 0.0 0.0 0.00 0.02 0.02 89 1008.9
20260509195516 50 0.0 3.0 0.00 0.02 0.02 89 1008.9
20260509195016 50 0.0 0.0 0.00 0.02 0.02 89 1008.9
20260509194516 50 0.0 1.0 0.00 0.02 0.02 89 1008.9
20260509194021 50 0.0 0.0 0.00 0.02 0.02 89 1009.0
20260509193516 49 0.0 2.0 0.01 0.02 0.02 88 1009.0
20260509193037 49 0.0 1.0 0.01 0.02 0.02 89 1009.1
20260509192517 49 0.0 2.0 0.01 0.02 0.02 89 1009.2
20260509192017 49 0.0 0.0 0.01 0.02 0.02 89 1009.2
20260509191516 49 0.0 0.0 0.02 0.02 0.02 89 1009.2
20260509191016 49 0.0 0.0 0.02 0.02 0.02 89 1009.3
20260509190516 49 0.0 0.0 0.02 0.02 0.02 89 1009.4
20260509190016 49 0.0 0.0 0.02 0.02 0.02 89 1009.4
20260509185516 49 0.0 0.0 0.02 0.02 0.02 89 1009.4
20260509185017 49 0.0 0.0 0.02 0.02 0.02 89 1009.5
20260509184516 49 0.0 0.0 0.02 0.02 0.02 89 1009.5
20260509184016 49 0.0 0.0 0.02 0.02 0.02 88 1009.6
20260509183516 49 0.0 0.0 0.01 0.01 0.01 87 1009.6
20260509183016 49 0.0 0.0 0.01 0.01 0.01 86 1009.6
20260509182517 50 0.0 3.0 0.01 0.01 0.01 86 1009.7
20260509182016 50 0.0 2.0 0.01 0.01 0.01 85 1009.7
20260509181537 50 0.0 2.0 0.00 0.00 0.00 84 1009.7
20260509181056 50 225 1.0 4.0 0.00 0.00 0.00 84 1009.7
20260509180516 51 0.0 2.0 0.00 0.00 0.00 83 1009.7
20260509180016 51 0.0 0.0 0.00 0.00 0.00 83 1009.8
20260509175536 51 0.0 0.0 0.00 0.00 0.00 83 1009.9
20260509175036 51 0.0 0.0 0.00 0.00 0.00 83 1010.0
20260509174537 51 0.0 1.0 0.00 0.00 0.00 82 1010.0
20260509174016 51 0.0 1.0 0.00 0.00 0.00 81 1010.0
20260509173516 51 158 1.0 4.0 0.00 0.00 0.00 81 1010.0
20260509173016 50 0.0 2.0 0.00 0.00 0.00 81 1010.1
20260509172516 50 0.0 2.0 0.00 0.00 0.00 80 1010.1
20260509172116 50 203 1.0 3.0 0.00 0.00 0.00 81 1010.2
20260509171516 50 0.0 1.0 0.00 0.00 0.00 81 1010.2
20260509171022 50 0.0 1.0 0.00 0.00 0.00 80 1010.3
20260509170516 50 203 1.0 4.0 0.00 0.00 0.00 80 1010.3
20260509170016 50 0.0 1.0 0.00 0.00 0.00 79 1010.4
20260509165516 50 0.0 1.0 0.00 0.00 0.00 79 1010.5
20260509165016 50 0.0 1.0 0.00 0.00 0.00 79 1010.6
20260509164516 50 0.0 3.0 0.00 0.00 0.00 78 1010.7
20260509164017 50 0.0 3.0 0.00 0.00 0.00 78 1010.7
20260509163516 50 180 1.0 2.0 0.00 0.00 0.00 77 1010.7
20260509163036 50 0.0 1.0 0.00 0.00 0.00 75 1010.6
20260509162516 51 203 1.0 3.0 0.00 0.00 0.00 74 1010.7
20260509162016 51 0.0 3.0 0.00 0.00 0.00 72 1010.8
20260509161516 51 0.0 1.0 0.00 0.00 0.00 70 1010.8
20260509161017 51 203 1.0 5.0 0.00 0.00 0.00 66 1010.9
20260509160516 52 135 1.0 2.0 0.00 0.00 0.00 62 1011.0
20260509160016 52 203 1.0 4.0 0.00 0.00 0.00 58 1011.0
20260509155516 52 158 1.0 3.0 0.00 0.00 0.00 58 1011.0
20260509155016 53 180 1.0 4.0 0.00 0.00 0.00 56 1011.1
20260509154516 53 203 1.0 3.0 0.00 0.00 0.00 51 1011.1
20260509154017 53 0.0 2.0 0.00 0.00 0.00 51 1011.1
20260509153521 54 203 2.0 4.0 0.00 0.00 0.00 50 1011.1
20260509153016 54 180 2.0 4.0 0.00 0.00 0.00 48 1011.2
20260509152516 54 203 1.0 3.0 0.00 0.00 0.00 47 1011.1
20260509152016 54 0.0 1.0 0.00 0.00 0.00 46 1011.1
20260509151516 54 0.0 2.0 0.00 0.00 0.00 47 1011.1
20260509151016 54 158 1.0 4.0 0.00 0.00 0.00 45 1011.2
20260509150517 54 0.0 1.0 0.00 0.00 0.00 44 1011.2
20260509150016 55 0.0 2.0 0.00 0.00 0.00 45 1011.2
20260509145516 54 0.0 4.0 0.00 0.00 0.00 44 1011.2
20260509145016 54 0.0 3.0 0.00 0.00 0.00 43 1011.1
20260509144516 54 225 1.0 3.0 0.00 0.00 0.00 43 1011.2
20260509144016 54 0.0 2.0 0.00 0.00 0.00 43 1011.4
20260509143517 54 0.0 2.0 0.00 0.00 0.00 42 1011.3
20260509143016 55 203 1.0 4.0 0.00 0.00 0.00 41 1011.3
20260509142516 55 0.0 0.0 0.00 0.00 0.00 41 1011.3
20260509142036 55 180 1.0 4.0 0.00 0.00 0.00 40 1011.3
20260509141516 55 0.0 1.0 0.00 0.00 0.00 40 1011.3
20260509141016 55 0.0 0.0 0.00 0.00 0.00 41 1011.3
20260509140516 55 0.0 2.0 0.00 0.00 0.00 40 1011.2
20260509140017 55 0.0 0.0 0.00 0.00 0.00 42 1011.2
20260509135516 55 0.0 2.0 0.00 0.00 0.00 42 1011.3
20260509135016 55 0.0 0.0 0.00 0.00 0.00 43 1011.3
20260509134536 54 0.0 0.0 0.00 0.00 0.00 42 1011.3
20260509134016 54 0.0 2.0 0.00 0.00 0.00 43 1011.2
20260509133516 54 0.0 0.0 0.00 0.00 0.00 43 1011.3
20260509133017 53 203 1.0 3.0 0.00 0.00 0.00 43 1011.5
20260509132515 54 0.0 1.0 0.00 0.00 0.00 43 1011.5
20260509132036 54 0.0 0.0 0.00 0.00 0.00 44 1011.4
20260509131516 53 0.0 0.0 0.00 0.00 0.00 44 1011.5
20260509131015 53 155 0.0 0.0 0.00 0.00 0.00 45 1011.5
20260509130516 53 0.0 0.0 0.00 0.00 0.00 45 1011.6
20260509130016 52 0.0 0.0 0.00 0.00 0.00 49 1011.7
20260509125516 52 0.0 0.0 0.00 0.00 0.00 50 1011.6
20260509125016 51 0.0 0.0 0.00 0.00 0.00 50 1011.7
20260509124516 50 203 1.0 3.0 0.00 0.00 0.00 51 1011.8
20260509124015 50 203 1.0 3.0 0.00 0.00 0.00 52 1011.8
20260509123515 49 180 2.0 4.0 0.00 0.00 0.00 53 1011.8
20260509123016 49 203 1.0 3.0 0.00 0.00 0.00 54 1011.9
20260509122535 49 203 1.0 3.0 0.00 0.00 0.00 57 1012.0
20260509122022 48 0.0 0.0 0.00 0.00 0.00 58 1012.0
20260509121515 48 0.0 2.0 0.00 0.00 0.00 58 1012.0
20260509121015 48 0.0 3.0 0.00 0.00 0.00 59 1012.0
20260509120515 47 0.0 1.0 0.00 0.00 0.00 59 1012.0
20260509120015 47 0.0 1.0 0.00 0.00 0.00 59 1012.0
20260509115516 46 158 1.0 3.0 0.00 0.00 0.00 60 1012.0
20260509115016 46 158 2.0 4.0 0.00 0.00 0.00 61 1012.0
20260509114516 45 180 1.0 4.0 0.00 0.00 0.00 62 1011.9
20260509114015 45 180 1.0 4.0 0.00 0.00 0.00 65 1012.0
20260509113516 44 0.0 0.0 0.00 0.00 0.00 66 1012.0
20260509113016 44 158 1.0 4.0 0.00 0.00 0.00 66 1011.9
20260509112536 43 158 1.0 3.0 0.00 0.00 0.00 67 1011.8
20260509112015 43 0.0 1.0 0.00 0.00 0.00 68 1011.8
20260509111536 43 158 1.0 3.0 0.00 0.00 0.00 68 1011.8